Flag for Germany Weather past 2 weeks in Mörfelden-Walldorf, Hesse, Germany

Now
54 °F

Sunny.


Feels Like: 49 °F
Forecast: 40 / 62 °F
Wind: 15 mph from North

Location: Frankfurt-M-Flughafen Airport


UV Index: 0 (Low)

Visibility: 10 mi


Pressure: 29.89 "Hg

Humidity: 41%

Dew point: 30 °F

Location of Mörfelden-WalldorfLocation

Historic Weather in Mörfelden-Walldorf

°F

Mörfelden-Walldorf temperature yesterday

Maximum temperature yesterday: 63 °F (at 3:50 PM)
Minimum temperature yesterday: 36 °F (at 3:50 AM)
Average temperature yesterday: 49 °F

Past Weeks' High & Low Weather Summary

 TemperatureHumidityPressure
High72 °F (Apr 3, 6:20 PM)100% (Apr 5, 12:50 AM)30.42 "Hg (Apr 5, 12:50 AM)
Low32 °F (Apr 16, 5:20 AM)25% (Apr 17, 5:50 PM)29.65 "Hg (Apr 3, 5:20 PM)
Average55 °F61%30.06 "Hg
* Reported Apr 3 5:20 PM — Apr 18 5:20 PM, Mörfelden-Walldorf, Weather by CustomWeather, © 2014

Note: Actual official high and low records may vary slightly from our data, if they occured in-between our weather recording intervals... More about our weather records

Advertising

Historic Weather Conditions — Data for Previous 24 hours

 ConditionsComfort  
Time TempWeatherWind HumidityBarometerVisibility
5:20 PM
Apr 18
57 °FSunny.14 mph27%29.86 "Hg10 mi
4:50 PM57 °FScattered showers. Passing clouds.14 mph31%29.86 "HgN/A
4:20 PM57 °FScattered showers. Passing clouds.14 mph33%29.86 "HgN/A
3:20 PM57 °FScattered showers. Scattered clouds.8 mph36%29.86 "HgN/A
2:50 PM55 °FScattered showers. Scattered clouds.15 mph31%29.89 "HgN/A
2:20 PM55 °FScattered showers. Scattered clouds.9 mph41%29.89 "HgN/A
1:50 PM55 °FScattered showers. Scattered clouds.7 mph41%29.89 "HgN/A
1:20 PM52 °FSprinkles. Scattered clouds.15 mph50%29.89 "HgN/A
12:50 PM54 °FSprinkles. Scattered clouds.9 mph47%29.89 "HgN/A
12:20 PM55 °FScattered showers. Scattered clouds.14 mph41%29.89 "HgN/A
11:50 AM54 °FScattered showers. Scattered clouds.13 mph41%29.89 "HgN/A
11:20 AM52 °FScattered clouds.12 mph47%29.89 "HgN/A
10:50 AM52 °FScattered clouds.13 mph54%29.89 "HgN/A
10:20 AM50 °FScattered clouds.10 mph62%29.89 "HgN/A
9:50 AM48 °FScattered clouds.9 mph62%29.89 "HgN/A
9:20 AM48 °FScattered clouds.9 mph66%29.89 "HgN/A
8:50 AM48 °FScattered clouds.8 mph66%29.89 "HgN/A
8:20 AM48 °FBroken clouds.7 mph76%29.89 "HgN/A
7:50 AM48 °FPartly sunny.8 mph76%29.86 "HgN/A
7:20 AM48 °FPartly cloudy.6 mph76%29.86 "HgN/A
6:50 AM48 °FLight rain. Passing clouds.5 mph76%29.86 "HgN/A
6:20 AM48 °FLight rain. Partly cloudy.10 mph87%29.86 "HgN/A
5:50 AM50 °FLight rain. Mostly cloudy.9 mph76%29.83 "HgN/A
5:20 AM48 °FLight rain. Overcast.6 mph82%29.83 "HgN/A
4:50 AM48 °FLight rain. Mostly cloudy.2 mph82%29.83 "HgN/A
4:20 AM46 °FLight rain. Mostly cloudy.6 mph87%29.86 "HgN/A
3:50 AM46 °FLight rain. Mostly cloudy.2 mph82%29.86 "HgN/A
3:20 AM50 °FLight rain. Mostly cloudy.2 mph58%29.86 "HgN/A
2:50 AM50 °FLight rain. Mostly cloudy.3 mph54%29.86 "HgN/A
2:20 AM50 °FLight rain. Mostly cloudy.3 mph54%29.89 "HgN/A
1:20 AM50 °FClear.3 mph47%29.89 "Hg10 mi
12:50 AM48 °FClear.2 mph54%29.89 "Hg10 mi
12:20 AM48 °FClear.1 mph50%29.92 "Hg10 mi
11:50 PM
Apr 17
48 °FClear.2 mph54%29.92 "Hg10 mi
11:20 PM48 °FClear.1 mph50%29.95 "Hg10 mi
10:50 PM48 °FClear.2 mph50%29.95 "Hg10 mi
10:20 PM50 °FClear.2 mph47%29.95 "Hg10 mi
9:50 PM50 °FClear.2 mph43%29.98 "Hg10 mi
9:20 PM52 °FSunny.3 mph38%29.98 "Hg10 mi
8:50 PM57 °FSunny.3 mph31%29.98 "Hg10 mi
8:20 PM57 °FSunny.5 mph31%29.98 "Hg10 mi
7:50 PM59 °FSunny.6 mph27%30.01 "Hg10 mi
6:50 PM61 °FSunny.10 mph25%30.04 "Hg10 mi
6:20 PM63 °FSunny.9 mph25%30.04 "Hg10 mi
Weather by CustomWeather, © 2014

See weather overview